Time,TemperatureF,DewpointF,PressureIn,WindDirection,WindDirectionDegrees,WindSpeedMPH,WindSpeedGustMPH,Humidity,HourlyPrecipIn,Conditions,Clouds,dailyrainin,SolarRadiationWatts/m^2,SoftwareType,DateUTC
2013-01-26 00:00:00,45.0,44.0,-100.00,WNW,287,2.0,5.0,98,0.00,,,0.06,0.000000,,2013-01-26 08:00:00,
2013-01-26 00:32:00,45.0,44.0,-100.00,WNW,287,2.0,5.0,98,0.00,,,0.06,0.000000,,2013-01-26 08:32:00,
2013-01-26 00:42:00,45.0,44.0,-100.00,WNW,287,2.0,5.0,98,0.00,,,0.06,0.000000,,2013-01-26 08:42:00,
2013-01-26 00:53:00,45.0,44.0,-100.00,WNW,287,2.0,5.0,98,0.00,,,0.06,0.000000,,2013-01-26 08:53:00,
2013-01-26 01:00:00,47.0,46.0,-100.00,NW,318,1.0,6.0,98,0.04,,,0.10,0.000000,,2013-01-26 09:00:00,
2013-01-26 01:32:00,47.0,46.0,-100.00,NW,318,1.0,6.0,98,0.04,,,0.10,0.000000,,2013-01-26 09:32:00,
2013-01-26 01:42:00,47.0,46.0,-100.00,NW,318,1.0,6.0,98,0.04,,,0.10,0.000000,,2013-01-26 09:42:00,
2013-01-26 01:52:00,47.0,46.0,-100.00,NW,318,1.0,6.0,98,0.04,,,0.10,0.000000,,2013-01-26 09:52:00,
2013-01-26 02:00:00,45.0,44.0,-100.00,East,80,0.0,6.0,98,0.00,,,0.10,0.000000,,2013-01-26 10:00:00,
2013-01-26 02:21:00,45.0,44.0,-100.00,East,80,0.0,6.0,98,0.00,,,0.10,0.000000,,2013-01-26 10:21:00,
2013-01-26 02:32:00,45.0,44.0,-100.00,East,80,0.0,6.0,98,0.00,,,0.10,0.000000,,2013-01-26 10:32:00,
2013-01-26 02:42:00,45.0,44.0,-100.00,East,80,0.0,6.0,98,0.00,,,0.10,0.000000,,2013-01-26 10:42:00,
2013-01-26 02:52:00,45.0,44.0,-100.00,East,80,0.0,6.0,98,0.00,,,0.10,0.000000,,2013-01-26 10:52:00,
2013-01-26 03:00:00,46.0,45.0,-100.00,WNW,291,0.0,4.0,98,0.03,,,0.13,0.000000,,2013-01-26 11:00:00,
2013-01-26 03:32:00,46.0,45.0,-100.00,WNW,291,0.0,4.0,98,0.03,,,0.13,0.000000,,2013-01-26 11:32:00,
2013-01-26 03:42:00,46.0,45.0,-100.00,WNW,291,0.0,4.0,98,0.03,,,0.13,0.000000,,2013-01-26 11:42:00,
2013-01-26 03:52:00,46.0,45.0,-100.00,WNW,291,0.0,4.0,98,0.03,,,0.13,0.000000,,2013-01-26 11:52:00,
2013-01-26 04:00:00,46.0,45.0,-100.00,WNW,298,0.0,0.0,98,0.05,,,0.18,0.000000,,2013-01-26 12:00:00,
2013-01-26 04:33:00,46.0,45.0,-100.00,WNW,298,0.0,0.0,98,0.05,,,0.18,0.000000,,2013-01-26 12:33:00,
2013-01-26 04:42:00,46.0,45.0,-100.00,WNW,298,0.0,0.0,98,0.05,,,0.18,0.000000,,2013-01-26 12:42:00,
2013-01-26 04:53:00,46.0,45.0,-100.00,WNW,298,0.0,0.0,98,0.05,,,0.18,0.000000,,2013-01-26 12:53:00,
2013-01-26 05:00:00,44.0,43.0,-100.00,WNW,288,0.0,5.0,98,0.01,,,0.19,0.000000,,2013-01-26 13:00:00,
2013-01-26 05:33:00,44.0,43.0,-100.00,WNW,288,0.0,5.0,98,0.01,,,0.19,0.000000,,2013-01-26 13:33:00,
2013-01-26 05:42:00,44.0,43.0,-100.00,WNW,288,0.0,5.0,98,0.01,,,0.19,0.000000,,2013-01-26 13:42:00,
2013-01-26 05:53:00,44.0,43.0,-100.00,WNW,288,0.0,5.0,98,0.01,,,0.19,0.000000,,2013-01-26 13:53:00,
2013-01-26 06:00:00,44.0,44.0,-100.00,North,0,0.0,5.0,99,0.02,,,0.21,0.000000,,2013-01-26 14:00:00,
2013-01-26 06:32:00,44.0,44.0,-100.00,North,0,0.0,5.0,99,0.02,,,0.21,0.000000,,2013-01-26 14:32:00,
2013-01-26 06:43:00,44.0,44.0,-100.00,North,0,0.0,5.0,99,0.02,,,0.21,0.000000,,2013-01-26 14:43:00,
2013-01-26 06:53:00,44.0,44.0,-100.00,North,0,0.0,5.0,99,0.02,,,0.21,0.000000,,2013-01-26 14:53:00,
2013-01-26 07:00:00,44.0,44.0,-100.00,East,100,1.0,4.0,99,0.00,,,0.21,0.000000,,2013-01-26 15:00:00,
2013-01-26 07:33:00,44.0,44.0,-100.00,East,100,1.0,4.0,99,0.00,,,0.21,0.000000,,2013-01-26 15:33:00,
2013-01-26 07:43:00,44.0,44.0,-100.00,East,100,1.0,4.0,99,0.00,,,0.21,0.000000,,2013-01-26 15:43:00,
2013-01-26 07:52:00,44.0,44.0,-100.00,East,100,1.0,4.0,99,0.00,,,0.21,0.000000,,2013-01-26 15:52:00,
2013-01-26 08:00:00,46.0,46.0,-100.00,SE,134,0.0,4.0,99,0.00,,,-99.99,0.000000,,2013-01-26 16:00:00,
2013-01-26 08:33:00,46.0,46.0,-100.00,SE,134,0.0,4.0,99,0.00,,,-99.99,0.000000,,2013-01-26 16:33:00,
2013-01-26 08:43:00,46.0,46.0,-100.00,SE,134,0.0,4.0,99,0.00,,,-99.99,0.000000,,2013-01-26 16:43:00,
2013-01-26 08:53:00,46.0,46.0,-100.00,SE,134,0.0,4.0,99,0.00,,,-99.99,0.000000,,2013-01-26 16:53:00,
2013-01-26 09:00:00,47.0,47.0,-100.00,South,186,0.0,0.0,99,0.00,,,0.21,25.000000,,2013-01-26 17:00:00,
2013-01-26 09:33:00,47.0,47.0,-100.00,South,186,0.0,0.0,99,0.00,,,0.21,25.000000,,2013-01-26 17:33:00,
2013-01-26 09:42:00,47.0,47.0,-100.00,South,186,0.0,0.0,99,0.00,,,0.21,25.000000,,2013-01-26 17:42:00,
2013-01-26 09:53:00,47.0,47.0,-100.00,South,186,0.0,0.0,99,0.00,,,0.21,25.000000,,2013-01-26 17:53:00,
2013-01-26 10:00:00,51.0,48.0,-100.00,SSW,199,1.0,4.0,89,0.00,,,0.21,214.000000,,2013-01-26 18:00:00,
2013-01-26 10:33:00,51.0,48.0,-100.00,SSW,199,1.0,4.0,89,0.00,,,0.21,214.000000,,2013-01-26 18:33:00,
2013-01-26 10:42:00,51.0,48.0,-100.00,SSW,199,1.0,4.0,89,0.00,,,0.21,214.000000,,2013-01-26 18:42:00,
2013-01-26 10:52:00,51.0,48.0,-100.00,SSW,199,1.0,4.0,89,0.00,,,0.21,214.000000,,2013-01-26 18:52:00,
2013-01-26 11:00:00,53.0,49.0,-100.00,East,100,5.0,8.0,87,0.00,,,0.21,358.000000,,2013-01-26 19:00:00,
2013-01-26 11:22:00,53.0,49.0,-100.00,East,100,5.0,8.0,87,0.00,,,0.21,358.000000,,2013-01-26 19:22:00,
2013-01-26 11:33:00,53.0,49.0,-100.00,East,100,5.0,8.0,87,0.00,,,0.21,358.000000,,2013-01-26 19:33:00,
2013-01-26 11:42:00,53.0,49.0,-100.00,East,100,5.0,8.0,87,0.00,,,0.21,358.000000,,2013-01-26 19:42:00,
2013-01-26 11:52:00,53.0,49.0,-100.00,East,100,5.0,8.0,87,0.00,,,0.21,358.000000,,2013-01-26 19:52:00,
2013-01-26 12:00:00,54.0,49.0,-100.00,East,101,2.0,9.0,82,0.00,,,0.21,412.000000,,2013-01-26 20:00:00,
2013-01-26 12:32:00,54.0,49.0,-100.00,East,101,2.0,9.0,82,0.00,,,0.21,412.000000,,2013-01-26 20:32:00,
2013-01-26 12:42:00,54.0,49.0,-100.00,East,101,2.0,9.0,82,0.00,,,0.21,412.000000,,2013-01-26 20:42:00,
2013-01-26 12:52:00,54.0,49.0,-100.00,East,101,2.0,9.0,82,0.00,,,0.21,412.000000,,2013-01-26 20:52:00,
2013-01-26 13:00:00,53.0,42.0,-100.00,South,184,7.0,11.0,67,0.00,,,0.21,401.000000,,2013-01-26 21:00:00,
2013-01-26 13:23:00,53.0,42.0,-100.00,South,184,7.0,11.0,67,0.00,,,0.21,401.000000,,2013-01-26 21:23:00,
2013-01-26 13:32:00,53.0,42.0,-100.00,South,184,7.0,11.0,67,0.00,,,0.21,401.000000,,2013-01-26 21:32:00,
2013-01-26 13:43:00,53.0,42.0,-100.00,South,184,7.0,11.0,67,0.00,,,0.21,401.000000,,2013-01-26 21:43:00,
2013-01-26 13:52:00,53.0,42.0,-100.00,South,184,7.0,11.0,67,0.00,,,0.21,401.000000,,2013-01-26 21:52:00,
2013-01-26 14:00:00,55.0,42.0,-100.00,West,261,12.0,19.0,62,0.00,,,0.21,786.000000,,2013-01-26 22:00:00,
2013-01-26 14:32:00,55.0,42.0,-100.00,West,261,12.0,19.0,62,0.00,,,0.21,786.000000,,2013-01-26 22:32:00,
2013-01-26 14:42:00,55.0,42.0,-100.00,West,261,12.0,19.0,62,0.00,,,0.21,786.000000,,2013-01-26 22:42:00,
2013-01-26 14:52:00,55.0,42.0,-100.00,West,261,12.0,19.0,62,0.00,,,0.21,786.000000,,2013-01-26 22:52:00,
2013-01-26 15:00:00,56.0,41.0,-100.00,West,261,9.0,20.0,58,0.00,,,0.21,647.000000,,2013-01-26 23:00:00,
2013-01-26 15:22:00,56.0,41.0,-100.00,West,261,9.0,20.0,58,0.00,,,0.21,647.000000,,2013-01-26 23:22:00,
2013-01-26 15:32:00,56.0,41.0,-100.00,West,261,9.0,20.0,58,0.00,,,0.21,647.000000,,2013-01-26 23:32:00,
2013-01-26 15:42:00,56.0,41.0,-100.00,West,261,9.0,20.0,58,0.00,,,0.21,647.000000,,2013-01-26 23:42:00,
2013-01-26 15:52:00,56.0,41.0,-100.00,West,261,9.0,20.0,58,0.00,,,0.21,647.000000,,2013-01-26 23:52:00,
2013-01-26 16:00:00,53.0,40.0,-100.00,West,275,11.0,22.0,61,0.00,,,0.21,704.000000,,2013-01-27 00:00:00,
2013-01-26 16:32:00,53.0,40.0,-100.00,West,275,11.0,22.0,61,0.00,,,0.21,704.000000,,2013-01-27 00:32:00,
2013-01-26 16:42:00,53.0,40.0,-100.00,West,275,11.0,22.0,61,0.00,,,0.21,704.000000,,2013-01-27 00:42:00,
2013-01-26 16:52:00,53.0,40.0,-100.00,West,275,11.0,22.0,61,0.00,,,0.21,704.000000,,2013-01-27 00:52:00,
2013-01-26 17:00:00,51.0,39.0,-100.00,West,277,15.0,27.0,64,0.00,,,0.21,405.000000,,2013-01-27 01:00:00,
2013-01-26 17:32:00,51.0,39.0,-100.00,West,277,15.0,27.0,64,0.00,,,0.21,405.000000,,2013-01-27 01:32:00,
2013-01-26 17:42:00,51.0,39.0,-100.00,West,277,15.0,27.0,64,0.00,,,0.21,405.000000,,2013-01-27 01:42:00,
2013-01-26 17:52:00,51.0,39.0,-100.00,West,277,15.0,27.0,64,0.00,,,0.21,405.000000,,2013-01-27 01:52:00,
2013-01-26 18:00:00,48.0,38.0,-100.00,WNW,283,14.0,29.0,69,0.00,,,0.21,26.000000,,2013-01-27 02:00:00,
2013-01-26 18:22:00,48.0,38.0,-100.00,WNW,283,14.0,29.0,69,0.00,,,0.21,26.000000,,2013-01-27 02:22:00,
2013-01-26 18:32:00,48.0,38.0,-100.00,WNW,283,14.0,29.0,69,0.00,,,0.21,26.000000,,2013-01-27 02:32:00,
2013-01-26 18:42:00,48.0,38.0,-100.00,WNW,283,14.0,29.0,69,0.00,,,0.21,26.000000,,2013-01-27 02:42:00,
2013-01-26 18:52:00,48.0,38.0,-100.00,WNW,283,14.0,29.0,69,0.00,,,0.21,26.000000,,2013-01-27 02:52:00,
2013-01-26 19:00:00,48.0,40.0,-100.00,West,271,7.0,24.0,74,0.00,,,0.21,2.000000,,2013-01-27 03:00:00,
2013-01-26 19:32:00,48.0,40.0,-100.00,West,271,7.0,24.0,74,0.00,,,0.21,2.000000,,2013-01-27 03:32:00,
2013-01-26 19:42:00,48.0,40.0,-100.00,West,271,7.0,24.0,74,0.00,,,0.21,2.000000,,2013-01-27 03:42:00,
2013-01-26 19:52:00,48.0,40.0,-100.00,West,271,7.0,24.0,74,0.00,,,0.21,2.000000,,2013-01-27 03:52:00,
2013-01-26 20:00:00,48.0,39.0,-100.00,West,267,5.0,15.0,71,0.00,,,0.21,0.000000,,2013-01-27 04:00:00,
2013-01-26 20:32:00,48.0,39.0,-100.00,West,267,5.0,15.0,71,0.00,,,0.21,0.000000,,2013-01-27 04:32:00,
2013-01-26 20:42:00,48.0,39.0,-100.00,West,267,5.0,15.0,71,0.00,,,0.21,0.000000,,2013-01-27 04:42:00,
2013-01-26 20:52:00,48.0,39.0,-100.00,West,267,5.0,15.0,71,0.00,,,0.21,0.000000,,2013-01-27 04:52:00,
2013-01-26 21:00:00,48.0,38.0,-100.00,WSW,249,4.0,13.0,68,0.00,,,0.21,0.000000,,2013-01-27 05:00:00,
2013-01-26 21:22:00,48.0,38.0,-100.00,WSW,249,4.0,13.0,68,0.00,,,0.21,0.000000,,2013-01-27 05:22:00,
2013-01-26 21:32:00,48.0,38.0,-100.00,WSW,249,4.0,13.0,68,0.00,,,0.21,0.000000,,2013-01-27 05:32:00,
2013-01-26 21:42:00,48.0,38.0,-100.00,WSW,249,4.0,13.0,68,0.00,,,0.21,0.000000,,2013-01-27 05:42:00,
2013-01-26 21:52:00,48.0,38.0,-100.00,WSW,249,4.0,13.0,68,0.00,,,0.21,0.000000,,2013-01-27 05:52:00,
2013-01-26 22:00:00,47.0,36.0,-100.00,WNW,295,2.0,9.0,65,0.00,,,0.18,0.000000,,2013-01-27 06:00:00,
2013-01-26 22:21:00,47.0,36.0,-100.00,WNW,295,2.0,9.0,65,0.00,,,0.18,0.000000,,2013-01-27 06:21:00,
2013-01-26 22:32:00,47.0,36.0,-100.00,WNW,295,2.0,9.0,65,0.00,,,0.18,0.000000,,2013-01-27 06:32:00,
2013-01-26 22:42:00,47.0,36.0,-100.00,WNW,295,2.0,9.0,65,0.00,,,0.18,0.000000,,2013-01-27 06:42:00,
2013-01-26 22:52:00,47.0,36.0,-100.00,WNW,295,2.0,9.0,65,0.00,,,0.18,0.000000,,2013-01-27 06:52:00,
2013-01-26 23:00:00,46.0,36.0,-100.00,WNW,288,3.0,11.0,68,0.00,,,0.15,0.000000,,2013-01-27 07:00:00,
2013-01-26 23:21:00,46.0,36.0,-100.00,WNW,288,3.0,11.0,68,0.00,,,0.15,0.000000,,2013-01-27 07:21:00,
2013-01-26 23:32:00,46.0,36.0,-100.00,WNW,288,3.0,11.0,68,0.00,,,0.15,0.000000,,2013-01-27 07:32:00,
2013-01-26 23:42:00,46.0,36.0,-100.00,WNW,288,3.0,11.0,68,0.00,,,0.15,0.000000,,2013-01-27 07:42:00,
2013-01-26 23:52:00,46.0,36.0,-100.00,WNW,288,3.0,11.0,68,0.00,,,0.15,0.000000,,2013-01-27 07:52:00,